Regional Weather Roundup
Issued by NWS

Home | Current Version | Previous Version | Graphics & Text | Print | Product List | Glossary Off
Versions: 1 2 3 4 5 6 7 8 9 10 11 12 13 14 15 16 17 18 19 20 21 22 23 24 25 26 27 28 29 30 31 32 33 34 35 36 37 38 39 40 41 42 43 44 45 46 47 48 49 50

000
ASUS43 KLSX 040957
RWRMO

WEATHER SUMMARY FOR MISSOURI
NATIONAL WEATHER SERVICE SPRINGFIELD MO
500 AM CDT FRI SEP 04 2015

NOTE: "FAIR" INDICATES FEW OR NO CLOUDS BELOW 12,000 FEET WITH NO
       SIGNIFICANT WEATHER AND/OR OBSTRUCTIONS TO VISIBILITY.
       CURRENT SKY AND/OR WEATHER CONDITIONS ARE NOT AVAILABLE FOR
       CHILLICOTHE AND FARMINGTON.

MOZ001>031-035>038-043-044-053-054-041100-
...NORTHERN AND WESTERN MISSOURI...

CITY           SKY/WX    TMP DP  RH WIND       PRES   REMARKS
KANSAS CTY INT PTCLDY    72  66  81 S9        29.93F
LEE`S SUMMIT   PTCLDY    73  67  81 S7        29.95S
ST JOSEPH      PTCLDY    71  67  87 S5        29.92S

$$
MOZ066>068-077>081-088>096-101>105-041100-
...SOUTHWEST MISSOURI...

CITY           SKY/WX    TMP DP  RH WIND       PRES   REMARKS
SPRINGFIELD    CLEAR     72  67  84 SE9       29.99R
JOPLIN         MOCLDY    74  66  76 S10       29.96R

$$
MOZ032>034-039>042-045>050-055>058-069>072-041100-
...CENTRAL MISSOURI...

CITY           SKY/WX    TMP DP  RH WIND       PRES   REMARKS
COLUMBIA       NOT AVBL
JEFFERSON CITY PTCLDY    69  67  93 CALM      29.97S
ROLLA          PTCLDY    70  66  87 S7        29.99S
SEDALIA        PTCLDY    71  67  87 S6        29.97S

$$
MOZ051-052-059>065-041100-
...EAST CENTRAL MISSOURI...

CITY           SKY/WX    TMP DP  RH WIND       PRES   REMARKS
ST LOUIS INTL  CLEAR     77  68  73 CALM      29.99R

$$
MOZ072>076-082>087-097>100-106>115-041100-
...SOUTH CENTRAL AND SOUTHEAST MISSOURI...

CITY           SKY/WX    TMP DP  RH WIND       PRES   REMARKS
CAPE GIRARDEAU PTCLDY    66  66 100 CALM      29.98R FOG
POPLAR BLUFF   CLEAR     68  67  96 CALM      29.97S FOG
WEST PLAINS    CLEAR     68  65  90 CALM      30.03S FOG

$$


USA.gov is the U.S. government's official web portal to all federal, state and local government web resources and services.